YO8RXT-3 Weather Reports


Display with metric or nautical units.
time (UTC)temp
F
wind
direction
speed
MPH
gust
MPH
rain 1hr
in
rain 24hr
in
rain mn
in
humidity
%
barometer
mb
20260902003503 61 230 2.0 0.0 0.00 0.00 0.00 88 1019.0
20260902000503 61 230 6.0 0.0 0.00 0.00 0.00 88 1019.0
20260901233502 61 2.0 0.0 0.00 0.00 0.00 88 1019.0
20260901230502 64 2.0 0.0 0.00 0.00 0.00 73 1019.0
20260901223502 64 280 5.0 0.0 0.00 0.00 0.00 78 1019.0
20260901220502 63 260 7.0 0.0 0.00 0.00 0.00 83 1019.0
20260901213502 64 310 5.0 0.0 0.00 0.00 0.00 78 1019.0
20260901210504 64 310 5.0 0.0 0.00 0.00 0.00 78 1019.0
20260901203502 66 300 7.0 0.0 0.00 0.00 0.00 73 1019.0
20260901200502 64 280 7.0 0.0 0.00 0.00 0.00 83 1019.0
20260901193502 66 300 6.0 0.0 0.00 0.00 0.00 78 1019.0
20260901190502 66 270 5.0 0.0 0.00 0.00 0.00 78 1019.0
20260901183502 68 290 3.0 0.0 0.00 0.00 0.00 69 1018.0
20260901180502 70 270 5.0 0.0 0.00 0.00 0.00 69 1018.0
20260901173503 70 300 5.0 0.0 0.00 0.00 0.00 69 1018.0
20260901170502 72 300 5.0 0.0 0.00 0.00 0.00 65 1018.0
20260901163502 72 310 5.0 0.0 0.00 0.00 0.00 65 1017.0
20260901160502 73 300 7.0 0.0 0.00 0.00 0.00 57 1017.0
20260901153503 73 300 8.0 0.0 0.00 0.00 0.00 61 1017.0
20260901150502 75 310 11.0 0.0 0.00 0.00 0.00 54 1017.0
20260901143503 75 310 10.0 0.0 0.00 0.00 0.00 57 1017.0
20260901140502 77 300 11.0 0.0 0.00 0.00 0.00
20260901133502 79 310 13.0 0.0 0.00 0.00 0.00 51 1017.0
20260901130502 75 300 11.0 0.0 0.00 0.00 0.00 54 1017.0
20260901123503 77 310 8.0 0.0 0.00 0.00 0.00 51 1017.0
20260901120503 79 270 9.0 0.0 0.00 0.00 0.00 48 1017.0
20260901113502 79 270 6.0 0.0 0.00 0.00 0.00 48 1016.0
20260901110502 79 270 7.0 0.0 0.00 0.00 0.00 45 1016.0
20260901103502 79 260 7.0 0.0 0.00 0.00 0.00 42 1016.0
20260901100502 81 220 7.0 0.0 0.00 0.00 0.00 39 1016.0
20260901093502 79 210 5.0 0.0 0.00 0.00 0.00 39 1016.0
20260901090502 79 190 5.0 0.0 0.00 0.00 0.00 39 1016.0
20260901083502 79 180 8.0 0.0 0.00 0.00 0.00 37 1016.0
20260901080502 75 120 9.0 0.0 0.00 0.00 0.00 44 1016.0
20260901073502 75 130 6.0 0.0 0.00 0.00 0.00 41 1016.0
20260901070502 73 120 6.0 0.0 0.00 0.00 0.00 44 1016.0
20260901063502 72 130 7.0 0.0 0.00 0.00 0.00 47 1015.0
20260901060502 70 120 10.0 0.0 0.00 0.00 0.00 50 1015.0
20260901053502 68 110 9.0 0.0 0.00 0.00 0.00 53 1015.0
20260901050502 68 110 10.0 0.0 0.00 0.00 0.00 49 1015.0
20260901043502 66 100 8.0 0.0 0.00 0.00 0.00 52 1015.0
20260901040502 66 100 10.0 0.0 0.00 0.00 0.00 52 1015.0
20260901033502 64 110 10.0 0.0 0.00 0.00 0.00 56 1015.0
20260901030502 64 100 8.0 0.0 0.00 0.00 0.00 56 1015.0
20260901023502 66 100 9.0 0.0 0.00 0.00 0.00 52 1015.0
20260901020503 66 90 8.0 0.0 0.00 0.00 0.00 49 1015.0
20260901013502 66 100 9.0 0.0 0.00 0.00 0.00 49 1015.0
20260901010502 68 90 10.0 0.0 0.00 0.00 0.00 46 1015.0